Time,TemperatureF,DewpointF,PressureIn,WindDirection,WindDirectionDegrees,WindSpeedMPH,WindSpeedGustMPH,Humidity,HourlyPrecipIn,Conditions,Clouds,dailyrainin,SoftwareType,DateUTC
2013-05-03 00:01:00,47.6,44.0,30.18,NW,323,2.0,4.0,86,0.00,,,0.00,weatherlink.com 1.10,2013-05-03 05:01:00,
2013-05-03 00:16:00,47.3,43.0,30.18,North,355,0.0,7.0,86,0.00,,,0.00,weatherlink.com 1.10,2013-05-03 05:16:00,
2013-05-03 00:31:00,47.2,43.0,30.18,WNW,300,1.0,4.0,86,0.00,,,0.00,weatherlink.com 1.10,2013-05-03 05:31:00,
2013-05-03 00:47:00,46.5,43.0,30.18,WSW,251,0.0,5.0,88,0.00,,,0.00,weatherlink.com 1.10,2013-05-03 05:47:00,
2013-05-03 01:02:00,45.9,43.0,30.18,WNW,297,1.0,3.0,88,0.00,,,0.00,weatherlink.com 1.10,2013-05-03 06:02:00,
2013-05-03 01:17:00,45.5,42.0,30.18,West,275,0.0,6.0,88,0.00,,,0.00,weatherlink.com 1.10,2013-05-03 06:17:00,
2013-05-03 01:32:00,45.4,42.0,30.18,WNW,298,3.0,5.0,88,0.00,,,0.00,weatherlink.com 1.10,2013-05-03 06:32:00,
2013-05-03 01:47:00,45.3,42.0,30.17,NW,322,3.0,5.0,87,0.00,,,0.00,weatherlink.com 1.10,2013-05-03 06:47:00,
2013-05-03 02:02:00,45.3,42.0,30.17,NE,36,0.0,3.0,88,0.00,,,0.00,weatherlink.com 1.10,2013-05-03 07:02:00,
2013-05-03 02:17:00,45.0,42.0,30.17,WSW,244,1.0,3.0,88,0.00,,,0.00,weatherlink.com 1.10,2013-05-03 07:17:00,
2013-05-03 02:32:00,44.7,42.0,30.16,NNW,333,0.0,4.0,89,0.00,,,0.00,weatherlink.com 1.10,2013-05-03 07:32:00,
2013-05-03 02:47:00,44.6,42.0,30.16,NNW,331,1.0,5.0,89,0.00,,,0.00,weatherlink.com 1.10,2013-05-03 07:47:00,
2013-05-03 03:02:00,44.5,41.0,30.16,WNW,287,1.0,5.0,88,0.00,,,0.00,weatherlink.com 1.10,2013-05-03 08:02:00,
2013-05-03 03:17:00,44.2,41.0,30.15,NW,312,2.0,4.0,89,0.00,,,0.00,weatherlink.com 1.10,2013-05-03 08:17:00,
2013-05-03 03:32:00,43.7,41.0,30.16,NW,311,1.0,3.0,90,0.00,,,0.00,weatherlink.com 1.10,2013-05-03 08:32:00,
2013-05-03 03:47:00,43.6,41.0,30.16,NNW,348,2.0,4.0,91,0.00,,,0.00,weatherlink.com 1.10,2013-05-03 08:47:00,
2013-05-03 04:02:00,43.5,41.0,30.15,WSW,237,0.0,4.0,90,0.01,,,0.01,weatherlink.com 1.10,2013-05-03 09:02:00,
2013-05-03 04:17:00,43.4,40.0,30.15,NW,317,0.0,7.0,89,0.01,,,0.01,weatherlink.com 1.10,2013-05-03 09:17:00,
2013-05-03 04:32:00,43.4,40.0,30.15,SSW,211,2.0,8.0,88,0.01,,,0.01,weatherlink.com 1.10,2013-05-03 09:32:00,
2013-05-03 04:47:00,43.5,40.0,30.15,NW,319,0.0,6.0,88,0.01,,,0.01,weatherlink.com 1.10,2013-05-03 09:47:00,
2013-05-03 05:02:00,43.5,40.0,30.15,NNW,338,2.0,5.0,86,0.00,,,0.01,weatherlink.com 1.10,2013-05-03 10:02:00,
2013-05-03 05:17:00,43.5,40.0,30.15,NNW,336,0.0,6.0,86,0.00,,,0.01,weatherlink.com 1.10,2013-05-03 10:17:00,
2013-05-03 05:32:00,43.5,40.0,30.16,WNW,295,3.0,4.0,86,0.00,,,0.01,weatherlink.com 1.10,2013-05-03 10:32:00,
2013-05-03 05:47:00,43.6,39.0,30.16,WSW,243,1.0,3.0,85,0.00,,,0.01,weatherlink.com 1.10,2013-05-03 10:47:00,
2013-05-03 06:02:00,43.5,39.0,30.16,NNW,333,0.0,8.0,84,0.00,,,0.01,weatherlink.com 1.10,2013-05-03 11:02:00,
2013-05-03 06:17:00,43.6,39.0,30.16,WNW,296,1.0,3.0,84,0.00,,,0.01,weatherlink.com 1.10,2013-05-03 11:17:00,
2013-05-03 06:32:00,43.6,39.0,30.16,NNW,344,1.0,7.0,83,0.00,,,0.01,weatherlink.com 1.10,2013-05-03 11:32:00,
2013-05-03 06:47:00,43.6,38.0,30.16,NW,319,0.0,8.0,82,0.00,,,0.01,weatherlink.com 1.10,2013-05-03 11:47:00,
2013-05-03 07:02:00,43.7,39.0,30.17,NW,325,4.0,5.0,83,0.00,,,0.01,weatherlink.com 1.10,2013-05-03 12:02:00,
2013-05-03 07:17:00,43.8,39.0,30.17,SW,219,0.0,3.0,82,0.00,,,0.01,weatherlink.com 1.10,2013-05-03 12:17:00,
2013-05-03 07:32:00,44.0,39.0,30.17,NNW,332,4.0,7.0,81,0.00,,,0.01,weatherlink.com 1.10,2013-05-03 12:32:00,
2013-05-03 07:47:00,44.2,38.0,30.18,NW,314,1.0,9.0,79,0.00,,,0.01,weatherlink.com 1.10,2013-05-03 12:47:00,
2013-05-03 08:02:00,44.9,39.0,30.18,NNW,344,5.0,7.0,80,0.00,,,0.01,weatherlink.com 1.10,2013-05-03 13:02:00,
2013-05-03 08:17:00,45.0,39.0,30.19,NNW,333,2.0,9.0,78,0.00,,,0.01,weatherlink.com 1.10,2013-05-03 13:17:00,
2013-05-03 08:32:00,45.6,39.0,30.19,North,350,1.0,6.0,77,0.00,,,0.01,weatherlink.com 1.10,2013-05-03 13:32:00,
2013-05-03 08:47:00,46.6,39.0,30.18,West,270,3.0,6.0,76,0.00,,,0.01,weatherlink.com 1.10,2013-05-03 13:47:00,
2013-05-03 09:02:00,46.9,39.0,30.18,NNW,343,4.0,10.0,73,0.00,,,0.01,weatherlink.com 1.10,2013-05-03 14:02:00,
2013-05-03 09:17:00,47.2,39.0,30.19,WNW,288,1.0,10.0,73,0.00,,,0.01,weatherlink.com 1.10,2013-05-03 14:17:00,
2013-05-03 09:32:00,48.6,39.0,30.19,NW,307,5.0,10.0,70,0.00,,,0.01,weatherlink.com 1.10,2013-05-03 14:32:00,
2013-05-03 09:47:00,49.3,40.0,30.18,North,355,2.0,9.0,70,0.00,,,0.01,weatherlink.com 1.10,2013-05-03 14:47:00,
2013-05-03 10:02:00,50.7,40.0,30.18,NW,323,7.0,12.0,68,0.00,,,0.01,weatherlink.com 1.10,2013-05-03 15:02:00,
2013-05-03 10:17:00,51.9,40.0,30.18,NNW,330,4.0,7.0,64,0.00,,,0.01,weatherlink.com 1.10,2013-05-03 15:17:00,
2013-05-03 10:32:00,52.9,40.0,30.18,NW,304,1.0,6.0,63,0.00,,,0.01,weatherlink.com 1.10,2013-05-03 15:32:00,
2013-05-03 10:47:00,53.9,41.0,30.18,WNW,284,8.0,10.0,61,0.00,,,0.01,weatherlink.com 1.10,2013-05-03 15:47:00,
2013-05-03 11:02:00,55.0,40.0,30.18,NW,316,0.0,10.0,58,0.00,,,0.01,weatherlink.com 1.10,2013-05-03 16:02:00,
2013-05-03 11:17:00,55.5,41.0,30.18,NW,314,1.0,7.0,59,0.00,,,0.01,weatherlink.com 1.10,2013-05-03 16:17:00,
2013-05-03 11:32:00,56.8,40.0,30.17,WNW,296,3.0,8.0,53,0.00,,,0.01,weatherlink.com 1.10,2013-05-03 16:32:00,
2013-05-03 11:48:00,56.4,40.0,30.17,NNW,332,2.0,13.0,55,0.00,,,0.01,weatherlink.com 1.10,2013-05-03 16:48:00,
2013-05-03 12:03:00,57.4,40.0,30.17,North,360,0.0,8.0,52,0.00,,,0.01,weatherlink.com 1.10,2013-05-03 17:03:00,
2013-05-03 12:18:00,59.6,39.0,30.17,South,188,2.0,7.0,46,0.00,,,0.01,weatherlink.com 1.10,2013-05-03 17:18:00,
2013-05-03 12:33:00,58.2,36.0,30.16,NW,309,6.0,10.0,44,0.00,,,0.01,weatherlink.com 1.10,2013-05-03 17:33:00,
2013-05-03 12:48:00,58.7,38.0,30.15,NNW,348,1.0,10.0,46,0.00,,,0.01,weatherlink.com 1.10,2013-05-03 17:48:00,
2013-05-03 13:03:00,60.3,40.0,30.15,NW,310,5.0,6.0,47,0.00,,,0.01,weatherlink.com 1.10,2013-05-03 18:03:00,
2013-05-03 13:18:00,60.5,35.0,30.14,SSW,212,1.0,9.0,39,0.00,,,0.01,weatherlink.com 1.10,2013-05-03 18:18:00,
2013-05-03 13:33:00,60.3,34.0,30.14,South,186,1.0,12.0,37,0.00,,,0.01,weatherlink.com 1.10,2013-05-03 18:33:00,
2013-05-03 13:48:00,62.7,35.0,30.13,WNW,286,0.0,9.0,35,0.00,,,0.01,weatherlink.com 1.10,2013-05-03 18:48:00,
2013-05-03 14:03:00,63.9,37.0,30.12,SSW,208,0.0,6.0,37,0.00,,,0.01,weatherlink.com 1.10,2013-05-03 19:03:00,
2013-05-03 14:18:00,62.7,37.0,30.12,North,360,3.0,8.0,38,0.00,,,0.01,weatherlink.com 1.10,2013-05-03 19:18:00,
2013-05-03 14:33:00,62.6,35.0,30.11,West,276,4.0,9.0,36,0.00,,,0.01,weatherlink.com 1.10,2013-05-03 19:33:00,
2013-05-03 14:48:00,63.4,34.0,30.11,NNW,339,3.0,6.0,34,0.00,,,0.01,weatherlink.com 1.10,2013-05-03 19:48:00,
2013-05-03 15:03:00,63.5,32.0,30.09,NNW,348,4.0,9.0,31,0.00,,,0.01,weatherlink.com 1.10,2013-05-03 20:03:00,
2013-05-03 15:18:00,63.2,32.0,30.09,WNW,296,1.0,10.0,31,0.00,,,0.01,weatherlink.com 1.10,2013-05-03 20:18:00,
2013-05-03 15:33:00,64.0,32.0,30.08,WNW,303,2.0,10.0,30,0.00,,,0.01,weatherlink.com 1.10,2013-05-03 20:33:00,
2013-05-03 15:48:00,64.9,34.0,30.07,ESE,120,9.0,9.0,32,0.00,,,0.01,weatherlink.com 1.10,2013-05-03 20:48:00,
2013-05-03 16:03:00,63.8,31.0,30.07,WNW,291,1.0,10.0,29,0.00,,,0.01,weatherlink.com 1.10,2013-05-03 21:03:00,
2013-05-03 16:18:00,65.4,31.0,30.06,North,350,2.0,11.0,28,0.00,,,0.01,weatherlink.com 1.10,2013-05-03 21:18:00,
2013-05-03 16:33:00,64.6,33.0,30.06,SW,214,4.0,9.0,31,0.00,,,0.01,weatherlink.com 1.10,2013-05-03 21:33:00,
2013-05-03 16:48:00,63.4,32.0,30.06,West,280,0.0,13.0,31,0.00,,,0.01,weatherlink.com 1.10,2013-05-03 21:48:00,
2013-05-03 17:03:00,63.5,32.0,30.06,East,86,2.0,6.0,31,0.00,,,0.01,weatherlink.com 1.10,2013-05-03 22:03:00,
2013-05-03 17:18:00,63.3,34.0,30.05,NW,304,3.0,11.0,33,0.00,,,0.01,weatherlink.com 1.10,2013-05-03 22:18:00,
2013-05-03 17:33:00,63.3,32.0,30.05,South,188,1.0,5.0,31,0.00,,,0.01,weatherlink.com 1.10,2013-05-03 22:33:00,
2013-05-03 17:48:00,62.9,32.0,30.05,NNW,342,4.0,10.0,32,0.00,,,0.01,weatherlink.com 1.10,2013-05-03 22:48:00,
2013-05-03 18:03:00,62.7,31.0,30.05,SSW,200,0.0,7.0,30,0.00,,,0.01,weatherlink.com 1.10,2013-05-03 23:03:00,
2013-05-03 18:18:00,62.4,31.0,30.05,WSW,252,1.0,7.0,31,0.00,,,0.01,weatherlink.com 1.10,2013-05-03 23:18:00,
2013-05-03 18:33:00,62.0,32.0,30.05,WNW,289,3.0,4.0,33,0.00,,,0.01,weatherlink.com 1.10,2013-05-03 23:33:00,
2013-05-03 18:48:00,61.6,32.0,30.06,WNW,292,1.0,8.0,33,0.00,,,0.01,weatherlink.com 1.10,2013-05-03 23:48:00,
2013-05-03 19:03:00,61.2,35.0,30.06,NNW,338,1.0,3.0,38,0.00,,,0.01,weatherlink.com 1.10,2013-05-04 00:03:00,
2013-05-03 19:18:00,60.3,36.0,30.06,NW,325,0.0,3.0,41,0.00,,,0.01,weatherlink.com 1.10,2013-05-04 00:18:00,
2013-05-03 19:33:00,59.3,38.0,30.06,NW,325,0.0,1.0,46,0.00,,,0.01,weatherlink.com 1.10,2013-05-04 00:33:00,
2013-05-03 19:48:00,58.0,39.0,30.06,NW,325,0.0,1.0,50,0.00,,,0.01,weatherlink.com 1.10,2013-05-04 00:48:00,
2013-05-03 20:03:00,56.7,37.0,30.07,NW,325,0.0,0.0,48,0.00,,,0.01,weatherlink.com 1.10,2013-05-04 01:03:00,
2013-05-03 20:18:00,55.3,38.0,30.07,NW,325,0.0,0.0,53,0.00,,,0.01,weatherlink.com 1.10,2013-05-04 01:18:00,
2013-05-03 20:33:00,54.0,38.0,30.08,NW,325,0.0,0.0,56,0.00,,,0.01,weatherlink.com 1.10,2013-05-04 01:33:00,
2013-05-03 20:48:00,52.9,38.0,30.08,NW,325,0.0,0.0,57,0.00,,,0.01,weatherlink.com 1.10,2013-05-04 01:48:00,
2013-05-03 21:03:00,51.9,38.0,30.08,NW,325,0.0,0.0,60,0.00,,,0.01,weatherlink.com 1.10,2013-05-04 02:03:00,
2013-05-03 21:18:00,51.0,38.0,30.08,NW,325,0.0,0.0,61,0.00,,,0.01,weatherlink.com 1.10,2013-05-04 02:18:00,
2013-05-03 21:33:00,50.2,39.0,30.09,NW,325,0.0,0.0,66,0.00,,,0.01,weatherlink.com 1.10,2013-05-04 02:33:00,
2013-05-03 21:48:00,49.5,40.0,30.09,NW,325,0.0,0.0,69,0.00,,,0.01,weatherlink.com 1.10,2013-05-04 02:48:00,
2013-05-03 22:03:00,48.6,40.0,30.09,NW,325,0.0,0.0,72,0.00,,,0.01,weatherlink.com 1.10,2013-05-04 03:03:00,
2013-05-03 22:18:00,47.8,40.0,30.09,NW,325,0.0,0.0,74,0.00,,,0.01,weatherlink.com 1.10,2013-05-04 03:18:00,
2013-05-03 22:33:00,46.7,41.0,30.09,NW,325,0.0,0.0,79,0.00,,,0.01,weatherlink.com 1.10,2013-05-04 03:33:00,
2013-05-03 22:48:00,45.9,41.0,30.09,NW,325,0.0,0.0,82,0.00,,,0.01,weatherlink.com 1.10,2013-05-04 03:48:00,
2013-05-03 23:03:00,45.4,41.0,30.09,NW,325,0.0,0.0,85,0.00,,,0.01,weatherlink.com 1.10,2013-05-04 04:03:00,
2013-05-03 23:18:00,44.9,41.0,30.09,NW,325,0.0,0.0,85,0.00,,,0.01,weatherlink.com 1.10,2013-05-04 04:18:00,
2013-05-03 23:33:00,44.4,41.0,30.09,NW,325,0.0,0.0,87,0.00,,,0.01,weatherlink.com 1.10,2013-05-04 04:33:00,
2013-05-03 23:48:00,43.8,41.0,30.09,NW,325,0.0,0.0,88,0.00,,,0.01,weatherlink.com 1.10,2013-05-04 04:48:00,